Time,TemperatureF,DewpointF,PressureIn,WindDirection,WindDirectionDegrees,WindSpeedMPH,WindSpeedGustMPH,Humidity,HourlyPrecipIn,Conditions,Clouds,dailyrainin,SoftwareType,DateUTC
2013-01-03 08:45:00,29.1,-6.9,28.38,East,83,5.4,5.4,20,44.61,,---,0.00,VWS V14.01,2013-01-03 16:45:00,
2013-01-03 08:51:00,29.8,-6.3,28.38,SSW,193,6.3,6.3,20,0.00,,---,0.00,VWS V14.01,2013-01-03 16:51:00,
2013-01-03 08:56:00,30.4,-5.9,28.38,SE,125,6.3,8.7,20,0.00,,---,0.00,VWS V14.01,2013-01-03 16:56:00,
2013-01-03 09:01:00,30.7,-5.6,28.38,SE,125,8.3,8.3,20,0.00,,---,0.00,VWS V14.01,2013-01-03 17:01:00,
2013-01-03 09:18:00,31.5,-5.0,28.38,ENE,78,4.0,4.0,20,44.61,,---,44.61,VWS V14.01,2013-01-03 17:18:00,
2013-01-03 09:24:00,31.8,-4.7,28.38,ENE,64,2.7,8.1,20,44.61,,---,44.61,VWS V14.01,2013-01-03 17:24:00,
2013-01-03 09:29:00,31.8,-4.7,28.38,ESE,105,3.1,7.2,20,44.61,,---,44.61,VWS V14.01,2013-01-03 17:29:00,
2013-01-03 09:34:00,32.0,-4.5,28.38,ESE,113,5.4,6.3,20,44.61,,---,44.61,VWS V14.01,2013-01-03 17:34:00,
2013-01-03 09:39:00,32.5,-4.1,28.38,NNE,27,3.1,8.3,20,44.61,,---,44.61,VWS V14.01,2013-01-03 17:39:00,
2013-01-03 09:45:00,32.9,-3.8,28.38,SE,140,5.4,6.3,20,44.61,,---,44.61,VWS V14.01,2013-01-03 17:45:00,
2013-01-03 09:50:00,33.8,-3.0,28.38,ESE,119,3.6,11.4,20,44.61,,---,44.61,VWS V14.01,2013-01-03 17:50:00,
2013-01-03 09:55:00,34.3,-2.6,28.41,SSE,148,2.7,5.4,20,44.61,,---,44.61,VWS V14.01,2013-01-03 17:55:00,
2013-01-03 10:00:00,34.7,-5.6,28.41,SE,131,2.7,8.1,17,44.61,,---,44.61,VWS V14.01,2013-01-03 18:00:00,
2013-01-03 10:05:00,34.7,-5.6,28.41,East,94,3.1,5.4,17,44.61,,---,44.61,VWS V14.01,2013-01-03 18:05:00,
2013-01-03 10:10:00,34.2,-6.1,28.41,ESE,113,4.5,4.5,17,0.00,,---,44.61,VWS V14.01,2013-01-03 18:10:00,
2013-01-03 10:15:00,33.6,-5.3,28.41,North,5,2.7,4.0,18,0.00,,---,0.00,VWS V14.01,2013-01-03 18:15:00,
2013-01-03 10:21:00,33.1,-3.6,28.41,ENE,75,0.0,0.0,20,0.00,,---,0.00,VWS V14.01,2013-01-03 18:21:00,
2013-01-03 10:26:00,32.9,-3.8,28.41,NNW,338,0.0,0.0,20,0.00,,---,0.00,VWS V14.01,2013-01-03 18:26:00,
2013-01-03 10:31:00,32.9,-3.8,28.41,NNE,31,0.0,0.0,20,0.00,,---,0.00,VWS V14.01,2013-01-03 18:31:00,
2013-01-03 10:36:00,33.1,-3.6,28.41,NNE,26,0.0,2.7,20,0.00,,---,0.00,VWS V14.01,2013-01-03 18:36:00,
2013-01-03 10:42:00,33.6,-3.2,28.41,North,2,0.0,2.2,20,0.00,,---,0.00,VWS V14.01,2013-01-03 18:42:00,
2013-01-03 10:47:00,35.2,-1.8,28.41,ESE,110,2.2,6.3,20,0.00,,---,0.00,VWS V14.01,2013-01-03 18:47:00,
2013-01-03 10:52:00,36.1,-2.1,28.41,WSW,239,2.2,4.0,19,0.00,,---,0.00,VWS V14.01,2013-01-03 18:52:00,
2013-01-03 10:58:00,36.5,1.3,28.41,SW,227,0.0,3.1,22,0.00,,---,0.00,VWS V14.01,2013-01-03 18:58:00,
2013-01-03 11:03:00,36.0,0.8,28.41,WSW,258,0.0,2.2,22,0.00,,---,0.00,VWS V14.01,2013-01-03 19:03:00,
2013-01-03 11:08:00,35.4,0.4,28.41,West,260,0.0,0.0,22,0.00,,---,0.00,VWS V14.01,2013-01-03 19:08:00,
2013-01-03 11:13:00,35.6,-2.6,28.41,WNW,297,0.0,3.1,19,0.00,,---,0.00,VWS V14.01,2013-01-03 19:13:00,
2013-01-03 11:19:00,36.1,-2.1,28.41,NW,306,0.0,2.2,19,0.00,,---,0.00,VWS V14.01,2013-01-03 19:19:00,
2013-01-03 11:55:00,37.0,1.7,28.41,ENE,62,2.2,2.7,22,0.00,,---,0.00,VWS V14.01,2013-01-03 19:55:00,
2013-01-03 12:00:00,36.3,1.1,28.41,NNE,32,3.6,3.6,22,0.00,,---,0.00,VWS V14.01,2013-01-03 20:00:00,
2013-01-03 12:06:00,36.1,2.8,28.41,NW,311,2.2,2.7,24,0.00,,---,0.00,VWS V14.01,2013-01-03 20:06:00,
2013-01-03 12:11:00,36.7,3.3,28.41,NW,323,0.0,0.0,24,0.00,,---,0.00,VWS V14.01,2013-01-03 20:11:00,
2013-01-03 12:16:00,37.2,1.9,28.41,East,79,0.0,2.7,22,0.00,,---,0.00,VWS V14.01,2013-01-03 20:16:00,
2013-01-03 12:21:00,37.0,1.7,28.41,North,0,0.0,2.7,22,0.00,,---,0.00,VWS V14.01,2013-01-03 20:21:00,
2013-01-03 12:27:00,36.9,1.6,28.41,North,0,0.0,0.0,22,0.00,,---,0.00,VWS V14.01,2013-01-03 20:27:00,
2013-01-03 12:32:00,37.4,3.9,28.41,East,93,3.1,3.1,24,0.00,,---,0.00,VWS V14.01,2013-01-03 20:32:00,
2013-01-03 12:37:00,37.2,1.9,28.41,NNE,27,0.0,3.1,22,0.00,,---,0.00,VWS V14.01,2013-01-03 20:37:00,
2013-01-03 12:42:00,36.7,3.3,28.41,NE,47,4.0,4.0,24,0.00,,---,0.00,VWS V14.01,2013-01-03 20:42:00,
2013-01-03 12:48:00,36.1,5.4,28.41,NE,36,2.7,3.6,27,0.00,,---,0.00,VWS V14.01,2013-01-03 20:48:00,
2013-01-03 12:53:00,35.2,4.6,28.41,NE,43,2.7,5.8,27,0.00,,---,0.00,VWS V14.01,2013-01-03 20:53:00,
2013-01-03 12:58:00,35.4,3.1,28.38,ENE,60,5.4,6.3,25,0.00,,---,0.00,VWS V14.01,2013-01-03 20:58:00,
2013-01-03 13:04:00,36.9,1.6,28.38,South,184,3.1,3.6,22,0.00,,---,0.00,VWS V14.01,2013-01-03 21:04:00,
2013-01-03 13:09:00,38.1,-0.5,28.38,ESE,112,3.6,6.3,19,0.00,,---,0.00,VWS V14.01,2013-01-03 21:09:00,
2013-01-03 13:14:00,38.8,0.1,28.38,ENE,69,3.6,6.7,19,0.00,,---,0.00,VWS V14.01,2013-01-03 21:14:00,
2013-01-03 13:19:00,39.4,-3.1,28.38,NE,45,3.6,8.1,16,0.00,,---,0.00,VWS V14.01,2013-01-03 21:19:00,
2013-01-03 13:25:00,39.9,-2.6,28.38,East,94,3.6,4.0,16,0.00,,---,0.00,VWS V14.01,2013-01-03 21:25:00,
2013-01-03 13:30:00,40.6,-2.0,28.38,NE,35,0.0,0.0,16,0.00,,---,0.00,VWS V14.01,2013-01-03 21:30:00,
2013-01-03 13:35:00,40.6,-2.0,28.38,North,10,0.0,0.0,16,0.00,,---,0.00,VWS V14.01,2013-01-03 21:35:00,
2013-01-03 13:40:00,39.9,-2.6,28.38,NNE,15,0.0,0.0,16,0.00,,---,0.00,VWS V14.01,2013-01-03 21:40:00,
2013-01-03 13:46:00,39.7,-2.8,28.38,ENE,77,0.0,0.0,16,0.00,,---,0.00,VWS V14.01,2013-01-03 21:46:00,
2013-01-03 13:51:00,40.3,-2.3,28.38,NNE,19,2.2,5.8,16,0.00,,---,0.00,VWS V14.01,2013-01-03 21:51:00,
2013-01-03 13:56:00,39.9,-2.6,28.38,ENE,65,2.2,6.3,16,0.00,,---,0.00,VWS V14.01,2013-01-03 21:56:00,
2013-01-03 14:01:00,39.9,-2.6,28.38,ENE,57,0.0,3.1,16,0.00,,---,0.00,VWS V14.01,2013-01-03 22:01:00,
2013-01-03 14:07:00,40.1,-2.5,28.38,North,3,0.0,2.7,16,0.00,,---,0.00,VWS V14.01,2013-01-03 22:07:00,
2013-01-03 14:12:00,39.9,-2.6,28.38,NE,42,0.0,4.0,16,0.00,,---,0.00,VWS V14.01,2013-01-03 22:12:00,
2013-01-03 14:17:00,39.4,-3.1,28.38,NNE,30,0.0,2.2,16,0.00,,---,0.00,VWS V14.01,2013-01-03 22:17:00,
2013-01-03 14:22:00,39.4,-3.1,28.38,North,357,2.7,2.7,16,0.00,,---,0.00,VWS V14.01,2013-01-03 22:22:00,
2013-01-03 14:28:00,39.6,-2.9,28.38,North,357,2.7,3.6,16,0.00,,---,0.00,VWS V14.01,2013-01-03 22:28:00,
2013-01-03 14:33:00,39.6,-2.9,28.38,NNE,17,0.0,6.3,16,0.00,,---,0.00,VWS V14.01,2013-01-03 22:33:00,
2013-01-03 14:38:00,39.6,-2.9,28.38,NNW,333,0.0,4.0,16,0.00,,---,0.00,VWS V14.01,2013-01-03 22:38:00,
2013-01-03 14:44:00,39.2,-3.2,28.38,NNE,13,3.1,3.1,16,0.00,,---,0.00,VWS V14.01,2013-01-03 22:44:00,
2013-01-03 14:49:00,39.4,-3.1,28.38,North,1,0.0,2.7,16,0.00,,---,0.00,VWS V14.01,2013-01-03 22:49:00,
2013-01-03 14:54:00,39.7,-2.8,28.38,NNE,30,0.0,0.0,16,0.00,,---,0.00,VWS V14.01,2013-01-03 22:54:00,
2013-01-03 14:59:00,40.1,-2.5,28.38,North,10,0.0,0.0,16,0.00,,---,0.00,VWS V14.01,2013-01-03 22:59:00,
2013-01-03 15:05:00,40.5,-2.2,28.38,ENE,62,0.0,3.6,16,0.00,,---,0.00,VWS V14.01,2013-01-03 23:05:00,
2013-01-03 15:10:00,40.8,-1.9,28.41,NNW,333,0.0,2.7,16,0.00,,---,0.00,VWS V14.01,2013-01-03 23:10:00,
2013-01-03 15:15:00,41.0,-1.7,28.41,North,0,0.0,3.1,16,0.00,,---,0.00,VWS V14.01,2013-01-03 23:15:00,
2013-01-03 15:20:00,41.2,-1.6,28.41,NNE,33,2.7,2.7,16,0.00,,---,0.00,VWS V14.01,2013-01-03 23:20:00,
2013-01-03 15:25:00,41.2,-1.6,28.41,NE,52,0.0,5.4,16,0.00,,---,0.00,VWS V14.01,2013-01-03 23:25:00,
2013-01-03 15:30:00,41.2,-1.6,28.41,NNE,32,3.1,5.8,16,0.00,,---,0.00,VWS V14.01,2013-01-03 23:30:00,
2013-01-03 15:35:00,41.0,-1.7,28.41,NE,49,0.0,0.0,16,0.00,,---,0.00,VWS V14.01,2013-01-03 23:35:00,
2013-01-03 15:40:00,40.6,-2.0,28.41,North,349,0.0,0.0,16,0.00,,---,0.00,VWS V14.01,2013-01-03 23:40:00,
2013-01-03 15:46:00,40.8,-1.9,28.41,North,5,2.2,3.6,16,0.00,,---,0.00,VWS V14.01,2013-01-03 23:46:00,
2013-01-03 15:51:00,40.6,-2.0,28.41,East,97,0.0,3.1,16,0.00,,---,0.00,VWS V14.01,2013-01-03 23:51:00,
2013-01-03 15:56:00,41.0,0.8,28.41,ENE,74,0.0,0.0,18,0.00,,---,0.00,VWS V14.01,2013-01-03 23:56:00,
2013-01-03 16:02:00,40.8,0.6,28.41,NW,326,0.0,0.0,18,0.00,,---,0.00,VWS V14.01,2013-01-04 00:02:00,
2013-01-03 16:07:00,40.6,0.5,28.41,NNE,13,3.1,3.1,18,0.00,,---,0.00,VWS V14.01,2013-01-04 00:07:00,
2013-01-03 16:12:00,40.5,0.3,28.41,NNE,16,0.0,0.0,18,0.00,,---,0.00,VWS V14.01,2013-01-04 00:12:00,
2013-01-03 16:17:00,40.3,0.2,28.41,West,268,0.0,5.8,18,0.00,,---,0.00,VWS V14.01,2013-01-04 00:17:00,
2013-01-03 16:23:00,40.6,0.5,28.41,West,268,0.0,0.0,18,0.00,,---,0.00,VWS V14.01,2013-01-04 00:23:00,
2013-01-03 16:28:00,41.7,4.7,28.41,West,259,2.2,10.1,21,0.00,,---,0.00,VWS V14.01,2013-01-04 00:28:00,
2013-01-03 16:33:00,42.6,5.4,28.41,South,187,0.0,3.1,21,0.00,,---,0.00,VWS V14.01,2013-01-04 00:33:00,
2013-01-03 16:38:00,42.8,2.2,28.41,South,191,0.0,4.0,18,0.00,,---,0.00,VWS V14.01,2013-01-04 00:38:00,
2013-01-03 16:44:00,42.6,2.1,28.41,West,269,0.0,5.8,18,0.00,,---,0.00,VWS V14.01,2013-01-04 00:44:00,
2013-01-03 16:49:00,42.3,5.1,28.41,SSW,209,4.0,6.7,21,0.00,,---,0.00,VWS V14.01,2013-01-04 00:49:00,
2013-01-03 16:54:00,43.3,5.0,28.41,SW,216,3.1,5.8,20,0.00,,---,0.00,VWS V14.01,2013-01-04 00:54:00,
2013-01-03 16:59:00,44.2,5.7,28.41,South,180,5.4,10.5,20,0.00,,---,0.00,VWS V14.01,2013-01-04 00:59:00,
2013-01-03 17:05:00,44.6,6.0,28.41,South,175,3.1,8.3,20,0.00,,---,0.00,VWS V14.01,2013-01-04 01:05:00,
2013-01-03 17:10:00,44.8,6.2,28.44,SSE,159,2.7,8.3,20,0.00,,---,0.00,VWS V14.01,2013-01-04 01:10:00,
2013-01-03 17:15:00,44.8,2.6,28.44,SE,141,3.6,3.6,17,0.00,,---,0.00,VWS V14.01,2013-01-04 01:15:00,
2013-01-03 17:20:00,43.7,5.3,28.44,SSW,209,3.6,6.3,20,0.00,,---,0.00,VWS V14.01,2013-01-04 01:20:00,
2013-01-03 17:26:00,43.7,5.3,28.44,SW,215,3.1,3.1,20,0.00,,---,0.00,VWS V14.01,2013-01-04 01:26:00,
2013-01-03 17:31:00,44.1,5.6,28.44,WSW,244,0.0,0.0,20,0.00,,---,0.00,VWS V14.01,2013-01-04 01:31:00,
2013-01-03 17:36:00,44.4,5.9,28.44,SE,139,0.0,0.0,20,0.00,,---,0.00,VWS V14.01,2013-01-04 01:36:00,
2013-01-03 17:41:00,45.1,6.5,28.44,SSE,157,3.6,5.8,20,0.00,,---,0.00,VWS V14.01,2013-01-04 01:41:00,
2013-01-03 17:47:00,45.7,6.9,28.44,SW,234,3.1,5.8,20,0.00,,---,0.00,VWS V14.01,2013-01-04 01:47:00,
2013-01-03 17:52:00,45.9,7.1,28.44,South,184,5.8,9.6,20,0.00,,---,0.00,VWS V14.01,2013-01-04 01:52:00,
2013-01-03 17:57:00,46.0,7.2,28.44,South,185,4.0,7.6,20,0.00,,---,0.00,VWS V14.01,2013-01-04 01:57:00,
2013-01-03 18:03:00,46.2,7.4,28.44,South,182,2.2,3.1,20,0.00,,---,0.00,VWS V14.01,2013-01-04 02:03:00,
2013-01-03 18:08:00,45.9,7.1,28.44,SSW,203,0.0,5.8,20,0.00,,---,0.00,VWS V14.01,2013-01-04 02:08:00,
2013-01-03 18:13:00,45.7,6.9,28.44,SSE,163,0.0,4.5,20,0.00,,---,0.00,VWS V14.01,2013-01-04 02:13:00,
2013-01-03 18:18:00,45.7,6.9,28.44,SSW,209,0.0,5.8,20,0.00,,---,0.00,VWS V14.01,2013-01-04 02:18:00,
2013-01-03 18:24:00,45.9,7.1,28.44,South,179,0.0,10.1,20,0.00,,---,0.00,VWS V14.01,2013-01-04 02:24:00,
2013-01-03 18:29:00,46.2,7.4,28.44,SSW,207,4.0,8.7,20,0.00,,---,0.00,VWS V14.01,2013-01-04 02:29:00,
2013-01-03 18:34:00,46.6,6.5,28.44,South,170,4.9,11.0,19,0.00,,---,0.00,VWS V14.01,2013-01-04 02:34:00,
2013-01-03 18:39:00,46.9,6.8,28.44,South,169,5.8,8.7,19,0.00,,---,0.00,VWS V14.01,2013-01-04 02:39:00,
2013-01-03 18:45:00,46.9,6.8,28.44,SSW,209,4.0,11.0,19,0.00,,---,0.00,VWS V14.01,2013-01-04 02:45:00,
2013-01-03 18:50:00,47.3,7.1,28.44,SW,224,5.8,11.0,19,0.00,,---,0.00,VWS V14.01,2013-01-04 02:50:00,
2013-01-03 18:55:00,47.3,7.1,28.44,South,183,6.3,6.3,19,0.00,,---,0.00,VWS V14.01,2013-01-04 02:55:00,
2013-01-03 19:01:00,47.3,10.4,28.44,SSE,159,5.4,8.7,22,0.00,,---,0.00,VWS V14.01,2013-01-04 03:01:00,
2013-01-03 19:06:00,47.3,10.4,28.44,South,185,4.0,6.3,22,0.00,,---,0.00,VWS V14.01,2013-01-04 03:06:00,
2013-01-03 19:11:00,47.3,10.4,28.44,South,171,3.6,6.3,22,0.00,,---,0.00,VWS V14.01,2013-01-04 03:11:00,
2013-01-03 19:16:00,47.3,10.4,28.44,South,173,3.6,4.0,22,0.00,,---,0.00,VWS V14.01,2013-01-04 03:16:00,
2013-01-03 19:21:00,47.3,10.4,28.44,SSE,163,5.8,13.2,22,0.00,,---,0.00,VWS V14.01,2013-01-04 03:21:00,
2013-01-03 19:27:00,47.5,10.6,28.47,South,176,6.3,11.0,22,0.00,,---,0.00,VWS V14.01,2013-01-04 03:27:00,
2013-01-03 19:32:00,47.5,10.6,28.47,South,169,5.8,12.8,22,0.00,,---,0.00,VWS V14.01,2013-01-04 03:32:00,
2013-01-03 19:37:00,47.7,10.7,28.47,SSW,212,8.3,10.1,22,0.00,,---,0.00,VWS V14.01,2013-01-04 03:37:00,
2013-01-03 19:43:00,47.7,10.7,28.47,South,191,5.8,8.1,22,0.00,,---,0.00,VWS V14.01,2013-01-04 03:43:00,
2013-01-03 19:48:00,47.7,12.7,28.47,SSW,204,8.3,8.3,24,0.00,,---,0.00,VWS V14.01,2013-01-04 03:48:00,
2013-01-03 19:53:00,47.5,12.5,28.47,SSE,164,5.4,10.5,24,0.00,,---,0.00,VWS V14.01,2013-01-04 03:53:00,
2013-01-03 19:58:00,47.5,12.5,28.47,South,187,4.9,8.7,24,0.00,,---,0.00,VWS V14.01,2013-01-04 03:58:00,
2013-01-03 20:04:00,47.5,12.5,28.47,WSW,256,10.1,11.0,24,0.00,,---,0.00,VWS V14.01,2013-01-04 04:04:00,
2013-01-03 20:09:00,47.5,12.5,28.47,SW,226,5.8,13.6,24,0.00,,---,0.00,VWS V14.01,2013-01-04 04:09:00,
2013-01-03 20:14:00,47.5,15.2,28.47,SSW,205,3.6,9.6,27,0.00,,---,0.00,VWS V14.01,2013-01-04 04:14:00,
2013-01-03 20:20:00,47.5,15.2,28.47,SSE,154,4.9,10.1,27,0.00,,---,0.00,VWS V14.01,2013-01-04 04:20:00,
2013-01-03 20:25:00,47.7,15.3,28.47,SW,220,4.0,14.1,27,0.00,,---,0.00,VWS V14.01,2013-01-04 04:25:00,
2013-01-03 20:30:00,47.7,15.3,28.47,SSW,212,3.1,8.7,27,0.00,,---,0.00,VWS V14.01,2013-01-04 04:30:00,
2013-01-03 20:35:00,47.7,15.3,28.47,SSW,211,4.0,9.6,27,0.00,,---,0.00,VWS V14.01,2013-01-04 04:35:00,
2013-01-03 20:40:00,47.7,15.3,28.47,SSE,161,4.0,7.6,27,0.00,,---,0.00,VWS V14.01,2013-01-04 04:40:00,
2013-01-03 20:45:00,47.5,15.2,28.47,South,182,8.1,12.8,27,0.00,,---,0.00,VWS V14.01,2013-01-04 04:45:00,
2013-01-03 20:50:00,47.5,15.2,28.47,SSW,198,3.6,3.6,27,0.00,,---,0.00,VWS V14.01,2013-01-04 04:50:00,
2013-01-03 20:56:00,47.5,15.2,28.47,SSW,213,4.9,10.1,27,0.00,,---,0.00,VWS V14.01,2013-01-04 04:56:00,
2013-01-03 21:00:00,47.5,15.2,28.47,SE,129,5.4,12.8,27,0.00,,---,0.00,VWS V14.01,2013-01-04 05:00:00,
2013-01-03 21:02:00,47.5,15.2,28.47,South,188,4.9,8.3,27,0.00,,---,0.00,VWS V14.01,2013-01-04 05:02:00,
2013-01-03 21:04:00,47.5,15.2,28.47,SSE,156,6.3,10.1,27,0.00,,---,0.00,VWS V14.01,2013-01-04 05:04:00,
2013-01-03 21:05:00,47.5,15.2,28.47,SSW,209,3.6,10.1,27,0.00,,---,0.00,VWS V14.01,2013-01-04 05:05:00,
2013-01-03 21:10:00,47.5,15.2,28.47,SSW,199,2.7,4.0,27,0.00,,---,0.00,VWS V14.01,2013-01-04 05:10:00,
2013-01-03 21:16:00,47.3,15.0,28.47,SSW,204,5.4,7.2,27,0.00,,---,0.00,VWS V14.01,2013-01-04 05:16:00,
2013-01-03 21:21:00,47.3,15.0,28.47,SSW,210,6.3,8.1,27,0.00,,---,0.00,VWS V14.01,2013-01-04 05:21:00,
2013-01-03 21:26:00,47.3,15.0,28.47,SW,229,8.1,10.1,27,0.00,,---,0.00,VWS V14.01,2013-01-04 05:26:00,
2013-01-03 21:32:00,47.3,15.9,28.47,SSE,165,2.7,6.3,28,0.00,,---,0.00,VWS V14.01,2013-01-04 05:32:00,
2013-01-03 21:37:00,47.3,15.9,28.47,SSE,163,3.1,8.7,28,0.00,,---,0.00,VWS V14.01,2013-01-04 05:37:00,
2013-01-03 21:42:00,47.3,15.9,28.50,SSE,166,8.1,8.1,28,0.00,,---,0.00,VWS V14.01,2013-01-04 05:42:00,
2013-01-03 21:47:00,47.3,15.9,28.50,South,175,3.1,8.3,28,0.00,,---,0.00,VWS V14.01,2013-01-04 05:47:00,
2013-01-03 21:53:00,47.3,16.7,28.50,SSE,166,8.7,11.0,29,0.00,,---,0.00,VWS V14.01,2013-01-04 05:53:00,
2013-01-03 21:58:00,47.1,16.5,28.50,WSW,243,5.8,12.3,29,0.00,,---,0.00,VWS V14.01,2013-01-04 05:58:00,
2013-01-03 22:03:00,47.1,16.5,28.50,SSW,211,6.7,7.6,29,0.00,,---,0.00,VWS V14.01,2013-01-04 06:03:00,
2013-01-03 22:09:00,47.1,16.5,28.50,SSE,155,5.8,8.1,29,0.00,,---,0.00,VWS V14.01,2013-01-04 06:09:00,
2013-01-03 22:14:00,46.9,17.1,28.50,South,170,5.8,10.5,30,0.00,,---,0.00,VWS V14.01,2013-01-04 06:14:00,
2013-01-03 22:19:00,46.9,17.1,28.50,South,186,4.9,8.7,30,0.00,,---,0.00,VWS V14.01,2013-01-04 06:19:00,
2013-01-03 22:24:00,46.9,17.1,28.53,SW,217,4.0,5.8,30,0.00,,---,0.00,VWS V14.01,2013-01-04 06:24:00,
2013-01-03 22:30:00,46.9,17.1,28.53,SSE,161,7.2,8.3,30,0.00,,---,0.00,VWS V14.01,2013-01-04 06:30:00,
2013-01-03 22:35:00,46.8,17.0,28.53,ESE,112,5.4,5.4,30,0.00,,---,0.00,VWS V14.01,2013-01-04 06:35:00,
2013-01-03 22:40:00,46.8,17.0,28.53,SSE,151,3.1,3.1,30,0.00,,---,0.00,VWS V14.01,2013-01-04 06:40:00,
2013-01-03 22:45:00,46.6,17.6,28.53,South,178,3.6,4.0,31,99.99,,---,0.00,VWS V14.01,2013-01-04 06:45:00,
2013-01-03 22:51:00,46.6,17.6,28.53,South,177,6.3,8.3,31,0.00,,---,0.00,VWS V14.01,2013-01-04 06:51:00,
2013-01-03 22:56:00,46.6,17.6,28.53,South,187,3.1,5.4,31,0.00,,---,0.00,VWS V14.01,2013-01-04 06:56:00,
2013-01-03 23:01:00,46.6,18.3,28.53,South,171,5.8,8.1,32,0.00,,---,0.00,VWS V14.01,2013-01-04 07:01:00,
2013-01-03 23:06:00,46.6,19.0,28.53,SSE,154,5.4,5.4,33,0.00,,---,0.00,VWS V14.01,2013-01-04 07:06:00,
2013-01-03 23:12:00,46.6,19.0,28.53,SW,220,4.9,8.7,33,0.00,,---,0.00,VWS V14.01,2013-01-04 07:12:00,
2013-01-03 23:17:00,46.4,20.2,28.53,SW,214,5.4,5.8,35,0.00,,---,0.00,VWS V14.01,2013-01-04 07:17:00,
2013-01-03 23:22:00,46.4,20.9,28.53,SSW,200,3.6,4.0,36,0.00,,---,0.00,VWS V14.01,2013-01-04 07:22:00,
2013-01-03 23:27:00,46.0,21.9,28.53,South,182,0.0,2.7,38,0.00,,---,0.00,VWS V14.01,2013-01-04 07:27:00,
2013-01-03 23:33:00,45.7,22.2,28.53,SSW,200,3.6,6.3,39,0.00,,---,0.00,VWS V14.01,2013-01-04 07:33:00,
2013-01-03 23:38:00,45.3,23.0,28.53,South,187,0.0,4.9,41,0.00,,---,0.00,VWS V14.01,2013-01-04 07:38:00,
2013-01-03 23:43:00,45.0,24.4,28.53,SW,222,3.1,8.3,44,0.00,,---,0.00,VWS V14.01,2013-01-04 07:43:00,
2013-01-03 23:48:00,44.6,25.1,28.53,SSW,207,6.7,6.7,46,0.00,,---,0.00,VWS V14.01,2013-01-04 07:48:00,
2013-01-03 23:54:00,44.6,25.6,28.53,South,186,2.7,8.3,47,0.00,,---,0.00,VWS V14.01,2013-01-04 07:54:00,
2013-01-03 23:59:00,44.6,25.6,28.53,SE,125,8.7,10.1,47,0.00,,---,0.00,VWS V14.01,2013-01-04 07:59:00,